weather.gov     
National Weather Service

Terminal Aerodrome Forecast
NWS Homepage
This page is being discontinued on March 12, 2014.
The same data is available at this site. Please update your bookmarks.
Thank you, and we apologize for the inconvenience.
Please send an email to SR-SRH.Webmaster@noaa.gov with any concerns.


Current Version
Previous Version:    01  02  03  04  05  06  07  08  09  10  11  12  13  14  15  16  17  18  19  20  21  22  23  24  25  26  27  28  29  30  
   31  32  33  34  35  36  37  38  39  40  41  42  43  44  45  46  47  48  49  50  51  52  53  54  55  56  57  58  59  60  
[Printable]
306
FTUS46 KPQR 301313 AAB
TAFHIO
TAF AMD
KHIO 301313Z 3013/0112 00000KT 5SM -RA BR SCT035 OVC050
      TEMPO 3013/3016 2SM BR BKN004
     FM301700 29005KT P6SM BKN050
     FM010200 31006KT P6SM BKN050
     FM011000 00000KT 4SM BR BKN030=




306
FTUS46 KPQR 301313 AAB
TAFHIO
TAF AMD
KHIO 301313Z 3013/0112 00000KT 5SM -RA BR SCT035 OVC050
      TEMPO 3013/3016 2SM BR BKN004
     FM301700 29005KT P6SM BKN050
     FM010200 31006KT P6SM BKN050
     FM011000 00000KT 4SM BR BKN030=


U.S. Dept. of Commerce
NOAA National Weather Service
1325 East West Highway
Silver Spring, MD 20910
E-mail: w-nws.webmaster@noaa.gov
Page last modified: May 16, 2007
NATIONAL WEATHER SERVICE: for Safety, for Work, for Fun - FOR LIFE